Location: Allos
(44.2333°N, 6.6333°E)
Time: 05:27:02
(UTC+00:00)

ERS-2 - Pass Details

Date: 01 December 2020
Orbit: 492 x 498 km, 98.6° (Epoch: 27 January)

Event Time Altitude Azimuth Distance (km) Brightness Sun altitude
Exits shadow 16:35:33 - 43° (NE) 1,932 4.5 -7.2°
Reaches altitude 10° 16:36:16 10° 50° (NE) 1,710 4.2 -7.3°
Maximum altitude 16:38:50 18° 94° (E) 1,282 3.7 -7.7°
Drops below altitude 10° 16:41:24 10° 139° (SE) 1,699 4.6 -8.1°
Sets 16:43:59 0° 159° (SSE) 2,575 5.8 -8.6°
